Nichiryu Maru — JG5632 — position and weather

sailwx.info

Track history (hours):
 
Tides and Currents Weather Stations Pressure Air Temp Water Temp Dewpoint Dewpoint Depression Visibility Wind Speed Wind Dir Waves Ship Positions

Nichiryu Maru

Last reported at 2014-Nov-28 08:10 UTC. Time now 2014-Nov-29 09:50 UTC.
Position N 34°34' E 134°50'.

Length 158 m; draft 6.5 m.

Type: Cargo ship. MMSI: 43100939.

Date/timePositionNaut miles runAvg speedWind from/ knotsBaromVisibWave heightAir tempDewpointWater temp
2014-Nov-28 08:10N 34°34' E 134°50'1016.5
2014-Nov-28 07:33N 34°37' E 135°02'1110.6
2014-Nov-28 06:33N 34°41' E 135°14'0 0.3
2014-Nov-28 05:28N 34°41' E 135°13'0 0.0
2014-Nov-28 04:28N 34°41' E 135°13'7 7.8
2014-Nov-28 03:33N 34°34' E 135°14'2019.7
2014-Nov-28 02:33N 34°18' E 134°60'2019.5
2014-Nov-28 01:33N 33°58' E 134°59'24416.3
2014-Nov-27 10:33N 35°07' E 139°43'1211.8
2014-Nov-27 09:33N 35°19' E 139°40'1 0.8
2014-Nov-27 08:30N 35°19' E 139°39'0 0.0
2014-Nov-27 07:24N 35°19' E 139°39'0 0.0
2014-Nov-27 06:27N 35°19' E 139°39'0 0.0
2014-Nov-27 05:33N 35°19' E 139°39'0 0.0
2014-Nov-27 04:15N 35°19' E 139°39'5 6.5
2014-Nov-27 03:33N 35°18' E 139°45'1514.7
2014-Nov-27 02:31N 35°03' E 139°44'  
2014-Nov-24 09:33N 35°04' E 139°37'1414.0
2014-Nov-24 08:33N 35°17' E 139°45'5 4.4
2014-Nov-24 07:21N 35°19' E 139°39'0 0.0
2014-Nov-24 06:15N 35°19' E 139°39'0 0.0
2014-Nov-24 05:21N 35°19' E 139°39'0 0.0
2014-Nov-24 04:33N 35°19' E 139°39'0 0.0
2014-Nov-24 03:27N 35°19' E 139°39'0 0.0
2014-Nov-24 02:33N 35°19' E 139°39'0 0.0
2014-Nov-24 01:33N 35°19' E 139°39'0 0.0
2014-Nov-24 00:33N 35°19' E 139°39'0 0.0
2014-Nov-23 23:33N 35°19' E 139°39'2 1.8
2014-Nov-23 22:32N 35°19' E 139°41'0 0.0
2014-Nov-23 21:29N 35°19' E 139°41'0 0.0
2014-Nov-23 20:32N 35°19' E 139°41'0 0.1
2014-Nov-23 19:32N 35°19' E 139°41'0 0.0
2014-Nov-23 18:32N 35°19' E 139°41'0 0.0
2014-Nov-23 17:32N 35°19' E 139°41'0 0.0
2014-Nov-23 16:29N 35°19' E 139°41'0 0.0
2014-Nov-23 15:32N 35°19' E 139°41'0 0.0
2014-Nov-23 14:32N 35°19' E 139°41'0 0.0
2014-Nov-23 13:23N 35°19' E 139°41'0 0.0
2014-Nov-23 12:32N 35°19' E 139°41'0 0.0
2014-Nov-23 11:32N 35°19' E 139°41'7 7.1
2014-Nov-23 10:33N 35°14' E 139°47'247 4.9
2014-Nov-21 08:10N 34°34' E 134°49'1117.8
2014-Nov-21 07:33N 34°37' E 135°02'1010.3
2014-Nov-21 06:33N 34°41' E 135°14'0 0.2
2014-Nov-21 05:21N 34°41' E 135°13'0 0.0
2014-Nov-21 04:33N 34°41' E 135°13'0 0.1
2014-Nov-21 03:33N 34°41' E 135°14'1111.4
2014-Nov-21 02:33N 34°29' E 135°13'1717.3
2014-Nov-21 01:33N 34°16' E 134°59'1818.4
2014-Nov-21 00:33N 33°58' E 135°00'24116.6
2014-Nov-20 10:03N 35°06' E 139°41'816.8
2014-Nov-20 09:33N 35°14' E 139°46'8 5.7
2014-Nov-20 08:10N 35°19' E 139°39'0 0.0
2014-Nov-20 07:31N 35°19' E 139°39'0 0.0
2014-Nov-20 05:25N 35°19' E 139°39'0 0.0
2014-Nov-20 04:31N 35°19' E 139°39'3 3.6
2014-Nov-20 03:33N 35°18' E 139°43'1312.5
2014-Nov-20 02:33N 35°06' E 139°45'  
Track history (hours):
 
Tides and Currents Weather Stations Pressure Air Temp Water Temp Dewpoint Dewpoint Depression Visibility Wind Speed Wind Dir Waves Ship Positions

Nichiryu Maru

Last reported at 2014-Nov-28 08:10 UTC. Time now 2014-Nov-29 09:50 UTC.
Position N 34°34' E 134°50'.

Length 158 m; draft 6.5 m.

Type: Cargo ship. MMSI: 43100939.

Date/timePositionNaut miles runAvg speedWind from/ knotsBaromVisibWave heightAir tempDewpointWater temp
2014-Nov-28 08:10N 34°34' E 134°50'1016.5
2014-Nov-28 07:33N 34°37' E 135°02'1110.6
2014-Nov-28 06:33N 34°41' E 135°14'0 0.3
2014-Nov-28 05:28N 34°41' E 135°13'0 0.0
2014-Nov-28 04:28N 34°41' E 135°13'7 7.8
2014-Nov-28 03:33N 34°34' E 135°14'2019.7
2014-Nov-28 02:33N 34°18' E 134°60'2019.5
2014-Nov-28 01:33N 33°58' E 134°59'24416.3
2014-Nov-27 10:33N 35°07' E 139°43'1211.8
2014-Nov-27 09:33N 35°19' E 139°40'1 0.8
2014-Nov-27 08:30N 35°19' E 139°39'0 0.0
2014-Nov-27 07:24N 35°19' E 139°39'0 0.0
2014-Nov-27 06:27N 35°19' E 139°39'0 0.0
2014-Nov-27 05:33N 35°19' E 139°39'0 0.0
2014-Nov-27 04:15N 35°19' E 139°39'5 6.5
2014-Nov-27 03:33N 35°18' E 139°45'1514.7
2014-Nov-27 02:31N 35°03' E 139°44'  
2014-Nov-24 09:33N 35°04' E 139°37'1414.0
2014-Nov-24 08:33N 35°17' E 139°45'5 4.4
2014-Nov-24 07:21N 35°19' E 139°39'0 0.0
2014-Nov-24 06:15N 35°19' E 139°39'0 0.0
2014-Nov-24 05:21N 35°19' E 139°39'0 0.0
2014-Nov-24 04:33N 35°19' E 139°39'0 0.0
2014-Nov-24 03:27N 35°19' E 139°39'0 0.0
2014-Nov-24 02:33N 35°19' E 139°39'0 0.0
2014-Nov-24 01:33N 35°19' E 139°39'0 0.0
2014-Nov-24 00:33N 35°19' E 139°39'0 0.0
2014-Nov-23 23:33N 35°19' E 139°39'2 1.8
2014-Nov-23 22:32N 35°19' E 139°41'0 0.0
2014-Nov-23 21:29N 35°19' E 139°41'0 0.0
2014-Nov-23 20:32N 35°19' E 139°41'0 0.1
2014-Nov-23 19:32N 35°19' E 139°41'0 0.0
2014-Nov-23 18:32N 35°19' E 139°41'0 0.0
2014-Nov-23 17:32N 35°19' E 139°41'0 0.0
2014-Nov-23 16:29N 35°19' E 139°41'0 0.0
2014-Nov-23 15:32N 35°19' E 139°41'0 0.0
2014-Nov-23 14:32N 35°19' E 139°41'0 0.0
2014-Nov-23 13:23N 35°19' E 139°41'0 0.0
2014-Nov-23 12:32N 35°19' E 139°41'0 0.0
2014-Nov-23 11:32N 35°19' E 139°41'7 7.1
2014-Nov-23 10:33N 35°14' E 139°47'247 4.9
2014-Nov-21 08:10N 34°34' E 134°49'1117.8
2014-Nov-21 07:33N 34°37' E 135°02'1010.3
2014-Nov-21 06:33N 34°41' E 135°14'0 0.2
2014-Nov-21 05:21N 34°41' E 135°13'0 0.0
2014-Nov-21 04:33N 34°41' E 135°13'0 0.1
2014-Nov-21 03:33N 34°41' E 135°14'1111.4
2014-Nov-21 02:33N 34°29' E 135°13'1717.3
2014-Nov-21 01:33N 34°16' E 134°59'1818.4
2014-Nov-21 00:33N 33°58' E 135°00'24116.6
2014-Nov-20 10:03N 35°06' E 139°41'816.8
2014-Nov-20 09:33N 35°14' E 139°46'8 5.7
2014-Nov-20 08:10N 35°19' E 139°39'0 0.0
2014-Nov-20 07:31N 35°19' E 139°39'0 0.0
2014-Nov-20 05:25N 35°19' E 139°39'0 0.0
2014-Nov-20 04:31N 35°19' E 139°39'3 3.6
2014-Nov-20 03:33N 35°18' E 139°43'1312.5
2014-Nov-20 02:33N 35°06' E 139°45'  

Dump ship's entire track history